Flag for China Weather past 2 weeks in Kashgar, Xinjiang, China

Now
23 °F

Light snow. Ice fog.


Feels Like: 23 °F
Forecast: 11 / 28 °F
Wind: No wind

Location: Kashi Airport

Current Time: Jan 29, 2015 at 3:31:22 PM

Latest Report: Jan 29, 2015 at 3:00 PM


Visibility: 1 mi

Pressure: 30.24 "Hg

Humidity: 93%

Dew point: 21 °F

Location of KashgarLocation

Historic Weather in Kashgar — Graph

°F

Kashgar temperature yesterday

Maximum temperature yesterday: 28 °F (at 5:00 PM)
Minimum temperature yesterday: 21 °F (at 2:00 AM)
Average temperature yesterday: 24 °F

Past Weeks' High & Low Weather Summary

 TemperatureHumidityPressure
High43 °F (Jan 15, 5:00 PM)100% (Jan 29, 5:00 AM)30.48 "Hg (Jan 29, 5:00 AM)
Low19 °F (Jan 24, 8:00 AM)22% (Jan 25, 6:00 PM)29.89 "Hg (Jan 23, 5:00 PM)
Average28 °F57%30.19 "Hg
* Reported Jan 14 2:00 PM — Jan 29 2:00 PM, Kashgar, Weather by CustomWeather, © 2014

Note: Actual official high and low records may vary slightly from our data, if they occured in-between our weather recording intervals... More about our weather records

Advertising

Kashgar weather history for previous 24 hours

 ConditionsComfort  
Time TempWeatherWind HumidityBarometerVisibility
2:00 PM
Jan 29
27 °FLight snow. Ice fog.No wind86%30.27 "Hg1 mi
1:00 PM27 °FLight snow. Ice fog.No wind93%30.27 "Hg1 mi
12:00 PM23 °FLight snow. Ice fog.No wind93%30.27 "Hg1 mi
11:00 AM21 °FLight snow. Ice fog.1 mph93%30.27 "Hg1 mi
8:00 AM21 °FLight snow. Ice fog.3 mph93%30.24 "Hg1 mi
7:00 AM21 °FLight snow. Ice fog.3 mph100%30.24 "Hg1 mi
6:00 AM21 °FLight snow. Ice fog.3 mph100%30.24 "Hg1 mi
5:00 AM21 °FLight snow. Overcast.3 mph100%30.24 "HgN/A
4:00 AM23 °FLight snow. Ice fog.3 mph93%30.27 "HgN/A
3:00 AM23 °FLight snow. Ice fog.3 mph93%30.27 "Hg1 mi
2:00 AM23 °FLight snow. Ice fog.3 mph93%30.27 "Hg1 mi
1:00 AM23 °FLight snow. Ice fog.3 mph93%30.30 "Hg1 mi
12:00 AM25 °FLight snow. Overcast.No wind86%30.30 "Hg1 mi
11:00 PM
Jan 28
25 °FLight snow. Passing clouds.1 mph86%30.30 "Hg1 mi
10:00 PM25 °FLight snow. Passing clouds.3 mph86%30.27 "Hg2 mi
9:00 PM27 °FPassing clouds.8 mph80%30.27 "Hg4 mi
8:00 PM27 °FLight snow. Partly sunny.6 mph74%30.24 "Hg4 mi
7:00 PM28 °FLight snow. Scattered clouds.3 mph69%30.24 "Hg4 mi
6:00 PM28 °FScattered clouds.6 mph74%30.21 "Hg4 mi
5:00 PM28 °FScattered clouds.3 mph74%30.24 "Hg3 mi
4:00 PM27 °FLight snow. Ice fog.3 mph80%30.24 "Hg2 mi
3:00 PM27 °FSnow flurries. Ice fog.3 mph80%30.27 "Hg1 mi
Weather by CustomWeather, © 2014

See weather overviewHow to use our weather pages